CAPE
4189 4162 4170 4211 4119 4352 4092 4149 4112 4082 4442 3871 4099 3650 3884 3950 4040 4261 3843 3582 3470 3117 2655 2675 2295 2165 229 166 122 103 70 40 7 0 2 807 824 317 116 74 177 624 91
3655 4175 4143 4197 4104 4164 4278 4157 4315 4402 4246 4498 4487 4178 4155 3909 4068 4231 3771 2558 3576 3070 2678 2463 1970 927 2126 1918 409 1823 615 920 99 1797 748 526 1326 1613 1177 1408 531 5 131
3264 3371 4040 4067 4156 4061 4253 4291 4371 4410 4447 4256 4296 4470 4365 4059 4027 4301 4188 3817 3692 3478 3194 2898 2229 1968 2496 786 864 724 458 731 760 431 302 310 322 613 921 1389 1372 1082 200
2596 2918 3582 4060 4013 4031 4126 4387 4307 4481 4481 4338 4364 4493 4462 4384 4129 4036 4115 4184 3890 3610 3452 3233 2798 2348 2175 2477 1787 1609 1482 1004 890 621 322 138 198 925 356 235 980 784 418
3057 3205 3556 4094 4250 4225 4180 4312 4339 4456 4471 4514 4448 4453 4659 4448 3687 4054 3836 4084 4203 3918 3793 3617 3209 2523 1645 1936 1331 1519 1378 1267 417 426 484 383 249 800 710 487 539 1074 962
3368 3219 3611 4140 4340 4379 4413 4375 4547 4472 4532 4575 4607 4500 4581 4343 2914 2509 3084 3967 4303 4295 4022 4022 3609 1958 1430 900 839 631 1122 2076 1483 705 758 921 2393 1385 617 342 692 768 111
3194 3902 3758 4194 4308 4488 4576 4612 4536 4591 4614 4624 4605 4612 4587 4635 3045 2351 2107 3619 4021 4172 4210 4204 3749 2590 1957 2066 879 531 349 703 960 2071 1750 1771 2382 2060 2014 1812 1512 793 580
3831 3544 4101 4101 4381 4505 4638 4660 4699 4688 4659 4672 4673 4721 4716 4593 3607 2631 2076 2861 3493 3997 4002 4113 4330 3616 3031 2648 2554 1334 1251 1154 987 876 1785 1953 2056 2116 1361 1595 1473 1345 857
3777 4007 3834 4343 4402 4625 4653 4649 4705 4707 4711 4649 4716 4746 4754 4696 3688 3258 2436 2574 3039 3451 3815 4024 4185 4152 3002 1953 2801 2630 1998 1511 655 844 836 779 550 463 608 1038 423 515 168
3799 4119 4295 4440 4534 4640 4720 4872 4837 4748 4670 4476 4530 4684 4335 4740 4046 3459 3050 2758 2868 3095 3556 3829 3112 3585 3181 2435 2439 2826 2532 1683 1398 1111 1036 813 422 301 307 916 534 185 541
3395 3893 4437 4551 4690 4618 4733 4919 4907 4769 4364 4666 4613 4631 4713 4436 4712 3731 3315 2813 3017 3045 3175 3333 3721 2776 2963 2636 2052 2803 2444 2110 1185 1213 1209 1052 522 645 336 285 477 173 168
3641 3892 4270 4578 4239 4042 4850 4917 5033 4877 4781 4779 4716 4646 4585 4707 3794 3980 3514 3059 2717 3120 3203 3108 3318 2991 2544 2564 2310 1997 2004 1608 1517 1177 1079 859 577 413 540 327 287 383 539
4355 4596 4623 4741 4717 4565 4774 4991 4591 4783 4222 4400 4056 4392 4356 4138 4724 3789 3479 3287 2924 2634 3134 2669 2461 2397 2391 2157 2095 2018 1760 1512 1273 1161 933 502 400 286 254 438 749 891 573
4630 4866 4792 4875 4801 4653 3952 3959 3861 3644 3723 3499 3674 3741 3479 3877 3920 4121 3353 3340 3087 2808 2488 2185 1916 1891 2103 2011 1817 1617 1504 1425 1014 725 455 317 302 208 175 152 188 125 17
3739 3654 3974 3762 3990 4462 4259 3620 3594 4062 3267 3647 3489 3256 3356 3557 3409 3130 3399 3735 2881 2827 2539 2394 2156 1528 1554 1712 1586 1417 1029 1014 743 334 222 106 162 116 132 141 133 91 2
3576 3560 3485 3450 3879 3767 3972 3959 3249 3100 3090 2892 2815 2886 2864 2672 2741 2567 2546 2845 2996 2867 2772 2538 2193 1925 1448 1400 1351 1130 740 544 391 135 320 103 97 106 73 158 68 56 32
3196 3412 2615 2366 2669 3202 3079 3105 3232 2834 2744 2523 2538 2556 2556 2472 2416 2561 2534 2561 2847 2911 2732 2450 2265 2026 1728 1378 1434 1012 491 293 149 271 144 59 56 99 71 81 10 57 55
1763 1730 1758 2103 2448 2516 2408 2390 2463 2638 2758 2383 1656 1639 1424 1257 1598 2354 2665 2386 2254 2320 2169 2046 1729 1779 1563 1264 1183 1018 318 112 95 188 7 47 110 65 7 63 53 105 64
1490 987 1097 1248 1271 881 819 743 704 579 348 273 209 129 263 407 649 1117 1430 1781 1750 1516 1561 1628 1311 1001 739 481 588 306 240 94 90 112 139 208 46 32 38 50 72 31 26
470 399 586 1007 826 936 589 379 100 77 18 9 6 19 119 224 336 494 480 736 699 508 812 1049 764 52 4 9 15 115 147 126 122 151 109 110 176 162 95 51 31 12 0
508 782 679 987 329 305 295 387 207 74 84 61 3 58 54 19 61 62 27 301 396 512 90 28 21 27 13 59 128 96 147 90 175 160 96 183 161 120 43 23 12 5 1
784 533 441 416 350 312 221 135 174 227 50 6 10 4 0 18 16 18 14 22 4 8 17 43 78 59 61 95 72 61 68 60 106 121 55 51 61 19 6 2 2 0 0
311 484 553 489 385 195 294 135 57 13 4 2 1 11 6 14 6 4 2 13 67 74 112 42 85 95 93 80 58 67 74 71 56 65 8 16 15 4 0 0 0 0 0
110 73 121 202 263 217 183 59 2 0 0 3 4 20 9 28 18 0 0 34 35 19 123 14 39 122 153 106 153 75 87 82 18 8 6 1 0 0 0 0 0 0 0
0 35 99 70 99 82 123 20 32 96 28 13 7 5 6 12 2 0 1 2 46 41 87 133 100 107 70 67 41 5 4 0 1 0 0 0 0 13 0 0 0 0 0
1 16 26 24 29 1 0 1 0 0 4 4 5 6 4 6 14 12 30 14 5 14 7 3 8 33 30 14 0 0 0 0 0 0 0 0 0 0 0 0 0 0 0
CIN
-21 -13 -10 -10 -7 -1 0 0 -1 0 0 -3 0 0 0 0 0 0 0 0 0 0 -5 -2 -28 -24 -88 -95 -115 -105 -105 -110 -101 0 -14 -25 -9 -18 -21 -51 -15 -1 -82
-74 -28 -27 -19 -25 -15 -9 -1 0 0 0 0 0 0 0 0 0 0 0 0 0 -6 -20 -17 -44 -109 -35 -29 -90 -4 -42 -13 -108 0 -14 -34 -12 -2 -1 0 0 0 -105
-84 -89 -48 -48 -27 -27 -17 -23 -8 -3 0 -1 0 0 0 0 0 0 0 0 0 -1 -8 -20 -43 -44 -20 -121 -104 -57 -107 -76 -52 -88 -86 -59 -19 -7 0 0 0 0 -28
-101 -105 -78 -71 -90 -80 -47 -24 -29 -15 -11 -12 0 0 0 0 0 0 0 0 0 0 -7 -8 -23 -37 -49 -31 -47 -64 -30 -51 -55 -61 -82 -83 -36 -3 -10 -8 -16 -5 0
-88 -100 -117 -85 -57 -51 -55 -45 -52 -19 -20 -18 -8 -1 0 -1 -3 0 0 0 0 0 0 0 -6 -43 -124 -83 -103 -70 -78 -61 -98 -79 -66 -37 -36 -16 -28 -28 -12 -14 -12
-97 -128 -105 -82 -67 -52 -40 -54 -41 -42 -27 -21 -11 -10 -3 -3 -30 -46 -19 0 0 0 0 0 -1 -113 -187 -255 -251 -239 -132 -13 -44 -47 -2 -2 -1 -1 -2 -2 -4 -10 -41
-160 -112 -129 -107 -104 -83 -54 -40 -52 -44 -31 -32 -24 -18 -16 -11 -56 -76 -109 -3 0 0 0 0 -6 -52 -132 -98 -225 -267 -278 -226 -132 -17 -12 -6 -3 0 0 -1 0 -2 -4
-145 -187 -142 -135 -94 -88 -76 -65 -54 -40 -39 -30 -33 -30 -19 -26 -79 -100 -125 -72 -19 0 -1 -6 0 0 -14 -69 -54 -189 -180 -160 -192 -128 -18 -2 -2 -1 -1 -2 -3 0 0
-174 -195 -199 -114 -112 -94 -113 -112 -85 -66 -61 -64 -39 -31 -37 -35 -108 -131 -121 -98 -54 -30 -6 0 0 0 -30 -152 -48 -42 -113 -153 -193 -72 -54 -35 -59 -93 -25 -1 0 0 0
-191 -198 -195 -138 -105 -108 -108 -95 -90 -83 -83 -75 -76 -69 -96 -71 -143 -190 -174 -104 -80 -57 -25 -13 -85 -38 -47 -101 -86 -13 -39 -156 -130 -55 -57 -48 -94 -101 -132 -25 -1 -6 -1
-134 -182 -184 -163 -123 -115 -76 -71 -86 -90 -102 -75 -73 -72 -72 -111 -98 -217 -231 -202 -140 -133 -57 -33 -20 -131 -97 -101 -131 -41 -102 -74 -93 -10 -9 -20 -33 -24 -112 -189 -26 -18 -20
-114 -183 -197 -157 -184 -192 -89 -85 -74 -83 -94 -74 -78 -81 -95 -97 -198 -166 -206 -232 -226 -85 -79 -67 -8 -32 -82 -53 -36 -81 -52 -13 -25 -8 -9 -16 -2 -7 -11 -78 -61 -15 0
-139 -145 -140 -120 -110 -118 -109 -80 -128 -108 -150 -143 -150 -141 -154 -131 -60 -157 -205 -216 -274 -239 -166 -76 -22 -8 -50 -37 -13 -12 -11 -4 0 0 -5 -41 -29 -36 -53 -34 -7 -1 -3
-129 -97 -96 -83 -86 -93 -153 -162 -169 -186 -174 -172 -133 -142 -143 -90 -67 -55 -141 -156 -131 -119 -139 -151 -117 -50 -6 -31 -19 -25 -3 0 -2 -1 -9 -43 -46 -45 -133 -13 -7 -5 -29
-176 -181 -149 -154 -139 -91 -98 -131 -149 -95 -127 -94 -105 -98 -76 -48 -51 -62 -36 -33 -142 -153 -88 -55 -80 -121 -33 -27 0 0 -35 -13 -45 -1 -6 -24 -28 -40 -102 -11 -17 -1 -24
-143 -142 -139 -121 -87 -105 -76 -68 -132 -119 -111 -122 -128 -114 -98 -110 -92 -96 -89 -40 -33 -65 -49 -51 -59 -27 -66 -41 -20 -57 -39 -98 -42 -15 -1 -25 -51 -5 -32 -18 -5 0 0
-86 -86 -145 -173 -85 -64 -88 -78 -55 -119 -127 -145 -159 -177 -173 -149 -129 -175 -160 -116 -38 -23 -22 -26 -42 -34 -24 -32 0 -29 -42 -87 -28 -22 -1 -30 -4 -10 -16 -6 -14 0 0
-244 -204 -269 -229 -176 -213 -233 -203 -172 -127 -102 -163 -298 -270 -304 -312 -240 -136 -71 -40 -20 -5 -3 0 -1 -1 0 0 0 -3 -75 -21 -122 -19 -19 -7 -1 -7 0 -1 -2 0 0
-237 -354 -317 -313 -344 -475 -485 -477 -466 -488 -524 -526 -519 -547 -496 -469 -404 -252 -154 -60 -49 -31 -7 0 0 0 0 0 -1 -8 -43 -69 -51 -35 -45 -19 -20 0 -1 0 0 -1 -2
-411 -441 -341 -253 -302 -281 -398 -455 -586 -575 -592 -524 -311 -429 -340 -311 -298 -237 -234 -168 -124 -116 -25 0 0 -13 -56 -9 -6 0 -8 -13 -13 -7 -6 -2 -2 0 0 0 0 -1 0
-236 -213 -234 -144 -246 -244 -276 -303 -398 -441 -416 -417 -457 -303 -283 -323 -264 -210 -284 -153 -74 -22 -133 -195 -1 -51 -20 -6 0 -3 0 -1 -3 -9 -5 -2 0 0 0 0 0 0 -1
-97 -131 -129 -126 -153 -173 -179 -196 -221 -213 -304 0 0 0 0 0 0 0 0 0 -2 -1 -9 -6 -6 -8 -9 -6 -10 -1 -2 -5 -2 -4 -10 0 0 -1 0 0 0 0 0
-76 -51 -52 -54 -81 -139 -92 -143 -225 -161 0 0 0 0 0 0 0 -1 0 0 0 0 0 -16 -1 0 -1 0 0 -1 -19 -11 -18 -5 -1 -1 0 0 0 0 0 0 0
-60 -81 -76 -54 -67 -99 -72 -125 -1 0 0 0 0 0 0 0 0 0 0 0 -11 -7 -146 -40 -32 -12 -3 -5 -1 -19 -20 -7 0 0 0 0 0 0 0 0 0 0 0
-4 -12 -4 -17 -34 -64 -53 -76 -36 -17 -1 -3 -1 0 0 -1 0 0 -1 -37 -51 -46 -9 -53 -11 -3 -30 -3 -3 -4 -1 0 -2 0 0 0 0 -1 0 0 0 0 0
-7 -15 -12 -15 -5 0 0 0 0 -1 -3 0 0 -4 0 0 -7 -2 -6 0 0 0 0 0 -1 -12 -8 -4 0 0 0 0 0 0 0 0 0 0 0 0 0 0 0
Wind_Speed
15 17 16 16 18 18 16 18 16 19 17 15 22 21 19 19 20 17 7 6 9 4 3 8 13 11 11 16 12 12 nan nan nan nan nan 23 23 20 22 nan 28 29 nan
8 12 16 17 20 21 18 16 19 16 18 22 19 23 21 19 19 19 14 5 11 8 7 7 12 14 13 11 14 13 13 13 nan 15 14 21 26 29 23 26 26 nan 30
8 11 13 17 20 21 22 20 18 17 17 18 20 20 22 20 20 20 15 9 7 11 9 10 11 15 17 17 19 16 19 14 19 16 17 23 22 27 30 31 32 34 34
12 14 16 18 20 23 23 23 17 16 16 16 18 21 23 22 20 20 19 12 8 12 12 10 12 14 16 18 16 20 16 20 23 22 23 23 28 29 31 33 35 34 36
10 11 14 16 16 20 23 24 18 16 16 18 20 24 27 26 16 15 15 14 11 11 13 13 12 15 18 19 20 21 26 25 26 27 28 29 34 37 35 33 36 37 41
11 11 13 16 20 20 20 24 23 18 18 18 20 23 24 20 17 13 12 11 14 13 14 16 14 23 25 30 32 27 30 28 30 31 31 31 32 32 37 37 43 41 37
16 14 16 21 19 19 20 23 26 22 18 18 19 18 21 23 19 22 19 14 17 18 20 20 22 24 29 30 31 31 27 28 32 38 36 38 38 36 40 46 43 41 43
19 21 18 20 20 20 22 20 24 25 25 16 18 18 14 16 21 25 28 23 18 18 22 25 27 28 33 34 35 33 31 30 32 39 42 46 48 42 43 44 44 44 45
22 23 25 25 22 22 20 22 26 29 28 18 19 21 20 15 24 28 31 27 26 25 23 25 28 29 33 41 36 33 35 37 43 46 48 59 57 60 47 49 44 46 43
28 29 33 32 27 24 21 22 25 28 26 26 27 29 27 25 29 35 39 33 32 32 33 31 34 32 37 47 43 46 44 47 55 56 57 64 62 59 58 55 46 42 42
37 37 37 34 33 26 26 28 28 28 28 28 29 31 33 30 29 41 45 41 41 32 34 39 39 42 47 54 53 53 53 61 62 64 63 66 65 62 61 48 52 44 43
26 28 28 32 32 33 29 31 30 29 30 28 31 29 30 25 31 44 49 47 49 38 33 32 35 55 57 55 54 48 64 71 70 68 74 74 71 68 60 45 44 40 36
31 29 24 28 30 29 33 30 30 31 30 33 33 33 30 32 37 43 53 48 44 40 45 42 44 54 59 58 56 73 75 69 69 65 74 73 69 72 72 35 36 40 39
31 31 32 30 29 31 32 32 32 31 35 31 32 30 31 37 38 39 43 46 44 38 44 46 56 62 57 58 67 68 72 73 73 71 73 60 60 47 32 31 34 41 nan
30 30 32 33 34 34 32 35 35 33 36 35 35 33 39 37 38 39 40 51 49 50 53 66 67 71 77 76 69 68 76 72 73 52 56 65 62 42 35 33 38 nan nan
33 33 34 35 39 36 40 38 52 55 56 61 58 51 45 55 53 57 57 60 65 73 68 69 68 73 75 83 71 73 66 77 74 62 54 59 nan 41 nan 33 nan nan nan
35 34 36 32 36 42 42 41 43 59 66 69 66 64 59 47 54 64 68 68 70 77 64 65 64 70 74 80 81 77 73 81 62 65 48 nan nan nan nan nan nan nan nan
43 42 38 41 45 50 52 53 53 52 50 53 67 66 63 65 64 64 61 70 65 57 62 66 65 68 74 80 86 86 69 72 nan 68 nan nan 38 nan nan nan nan 27 nan
43 44 44 48 51 53 53 55 56 58 59 58 58 63 68 69 67 72 71 59 64 61 61 67 67 68 71 72 84 98 69 nan nan 73 69 54 nan nan nan nan nan nan nan
57 53 53 55 55 56 57 59 61 nan nan nan nan nan 63 59 63 68 64 61 63 63 65 60 60 nan nan nan nan 40 58 66 67 69 65 54 54 36 nan nan nan nan nan
63 60 57 62 61 59 57 62 61 nan nan nan nan nan nan nan nan nan nan 54 54 50 nan nan nan nan nan nan 42 nan 51 nan 51 46 nan 39 28 27 nan nan nan nan nan
64 66 67 68 66 63 62 61 66 70 nan nan nan nan nan nan nan nan nan nan nan nan nan nan nan nan nan nan nan nan nan nan 42 31 nan nan nan nan nan nan nan nan nan
74 78 75 72 67 63 65 61 nan nan nan nan nan nan nan nan nan nan nan nan nan nan 30 nan nan nan nan nan nan nan nan nan nan nan nan nan nan nan nan nan nan nan nan
79 nan 76 69 67 67 61 nan nan nan nan nan nan nan nan nan nan nan nan nan nan nan 26 nan nan 4 6 15 17 nan nan nan nan nan nan nan nan nan nan nan nan nan nan
nan nan nan nan nan nan 70 nan nan nan nan nan nan nan nan nan nan nan nan nan nan nan nan 30 23 26 nan nan nan nan nan nan nan nan nan nan nan nan nan nan nan nan nan
nan nan nan nan nan nan nan nan nan nan nan nan nan nan nan nan nan nan nan nan nan nan nan nan nan nan nan nan nan nan nan nan nan nan nan nan nan nan nan nan nan nan nan
Wind_Direction
329 324 330 328 327 324 318 303 294 294 298 305 302 310 318 321 321 318 313 304 312 332 347 339 357 23 16 357 353 1 nan nan nan nan nan 314 320 321 319 nan 333 333 nan
354 355 355 353 356 350 345 336 317 308 302 301 302 308 312 313 311 318 316 311 308 320 335 354 353 355 6 356 346 342 341 337 nan 334 331 322 330 326 323 329 330 nan 322
318 340 350 360 358 359 350 347 347 338 323 320 323 316 311 309 308 311 311 304 296 315 329 341 346 353 350 354 344 329 336 332 338 343 344 337 328 326 326 325 325 331 325
318 336 350 356 359 353 348 345 347 340 347 345 343 343 332 323 315 315 315 312 311 315 322 316 324 341 342 342 340 331 332 333 337 338 339 333 327 323 329 331 327 331 334
297 327 353 344 340 343 346 346 345 345 343 352 350 356 358 357 342 331 324 320 309 301 305 298 306 314 323 324 318 326 327 330 325 326 332 329 330 316 319 322 329 322 315
298 330 316 325 331 341 339 340 340 347 341 345 3 7 7 6 7 344 327 298 298 284 286 287 296 311 319 323 325 321 320 317 322 317 316 320 325 321 327 328 327 326 326
291 302 313 320 326 334 332 336 341 331 322 343 349 358 10 13 354 340 326 296 301 303 296 298 303 304 308 308 310 313 314 316 319 315 315 312 303 313 319 321 326 322 328
278 297 305 314 312 306 325 341 330 315 327 312 325 344 349 359 343 339 332 330 318 315 315 310 297 297 301 307 304 309 316 313 312 308 305 303 306 305 307 314 317 322 328
274 288 293 297 302 310 324 329 317 318 325 303 311 321 332 332 325 324 316 326 331 334 321 317 314 311 311 308 306 309 308 310 302 302 296 289 295 304 310 311 316 322 326
276 278 278 286 290 294 295 301 300 305 311 309 316 319 325 326 316 317 312 306 316 319 320 319 317 317 312 310 308 305 305 304 303 298 297 292 298 304 306 308 306 312 317
267 270 272 277 282 278 284 289 297 301 303 311 315 317 318 310 311 315 312 303 306 318 301 309 302 309 297 300 306 301 303 293 293 290 290 291 292 296 297 294 299 306 311
262 267 260 266 267 267 279 286 293 296 302 303 310 310 307 314 306 301 316 327 310 316 309 307 298 294 297 293 294 294 280 287 288 291 293 289 287 289 297 284 287 302 308
264 267 264 267 264 264 278 283 283 285 287 293 293 293 292 291 289 300 307 320 320 324 317 286 280 298 302 303 299 284 291 295 290 284 278 282 300 299 299 265 286 297 298
261 263 262 263 265 269 267 270 274 276 280 281 278 282 284 282 282 285 289 295 303 307 307 296 283 293 293 290 283 285 292 296 302 297 284 288 309 306 285 279 277 285 nan
260 263 265 264 265 265 266 271 274 273 267 281 283 280 282 284 283 275 291 300 301 303 292 287 290 287 287 285 276 272 310 294 302 305 304 302 321 293 274 268 276 nan nan
260 262 261 262 268 268 272 270 266 267 271 270 269 270 271 278 281 287 291 295 299 297 289 289 292 289 289 304 298 299 298 298 287 292 305 309 nan 293 nan 270 nan nan nan
242 243 253 250 263 269 267 265 266 262 263 262 259 262 265 270 285 289 291 293 294 292 291 293 292 293 294 295 294 292 288 291 291 295 303 nan nan nan nan nan nan nan nan
240 232 242 246 246 250 253 256 257 260 261 260 259 257 263 267 270 273 279 282 285 293 291 293 296 296 292 289 285 282 279 280 nan 290 nan nan 283 nan nan nan nan 301 nan
250 244 249 248 248 251 254 257 260 261 260 260 261 267 267 269 274 280 287 287 293 289 284 285 285 285 287 285 278 269 262 nan nan 284 293 298 nan nan nan nan nan nan nan
247 239 243 248 250 253 258 261 261 nan nan nan nan nan 275 278 275 281 289 289 287 287 288 288 289 nan nan nan nan 259 264 265 274 283 290 292 291 275 nan nan nan nan nan
245 246 241 251 252 255 261 266 268 nan nan nan nan nan nan nan nan nan nan 286 288 290 nan nan nan nan nan nan 293 nan 270 nan 270 291 nan 269 262 278 nan nan nan nan nan
239 247 248 251 252 254 255 261 268 273 nan nan nan nan nan nan nan nan nan nan nan nan nan nan nan nan nan nan nan nan nan nan 287 278 nan nan nan nan nan nan nan nan nan
243 245 248 249 254 260 259 263 nan nan nan nan nan nan nan nan nan nan nan nan nan nan 293 nan nan nan nan nan nan nan nan nan nan nan nan nan nan nan nan nan nan nan nan
244 nan 246 250 251 261 259 nan nan nan nan nan nan nan nan nan nan nan nan nan nan nan 281 nan nan 249 281 319 314 nan nan nan nan nan nan nan nan nan nan nan nan nan nan
nan nan nan nan nan nan 257 nan nan nan nan nan nan nan nan nan nan nan nan nan nan nan nan 291 295 309 nan nan nan nan nan nan nan nan nan nan nan nan nan nan nan nan nan
nan nan nan nan nan nan nan nan nan nan nan nan nan nan nan nan nan nan nan nan nan nan nan nan nan nan nan nan nan nan nan nan nan nan nan nan nan nan nan nan nan nan nan